Dewpoint
12 12 13 13 14 14 13 12 14 14 13 11 11 11 11 11 11 11 11 12 12 12 12 12 12 13 13 14 14 14 13 13 14 16 18 19 17 16 15 15 15 14 14 15 15 14 14 14 14 15 15 16 16 16 17 17 17 17 17 17 17 17 17 17 17 17 17 18 18
11 12 13 17 17 16 14 13 15 15 14 13 12 11 11 11 11 11 11 11 12 12 12 12 13 13 13 14 15 15 14 14 14 15 17 17 16 15 14 14 14 14 14 14 14 14 14 14 14 15 15 16 16 17 17 17 17 17 17 16 17 17 17 17 18 18 18 18 18
11 11 12 14 15 14 13 13 13 14 14 13 13 12 12 11 11 11 11 11 12 12 12 12 13 14 14 13 14 14 14 14 13 13 13 13 13 13 13 14 13 14 16 17 15 15 15 15 15 16 17 17 17 17 17 17 17 17 17 17 17 18 18 18 18 19 19 19 19
10 10 11 12 13 13 13 13 13 13 13 14 13 13 13 12 12 12 12 12 12 13 13 13 13 14 15 14 14 14 14 16 16 15 14 14 14 14 14 14 14 14 15 15 14 14 14 14 15 16 17 17 17 17 17 17 17 18 18 18 18 18 18 18 19 19 19 19 19
10 10 10 10 12 13 13 13 12 12 13 14 14 13 13 13 13 13 13 13 13 13 13 13 12 13 14 16 15 14 14 16 20 20 18 17 16 15 15 14 14 14 14 14 14 14 14 13 15 16 17 17 17 17 17 18 17 17 18 18 19 19 19 19 19 19 19 19 19
10 10 10 10 11 12 13 13 13 13 13 13 13 13 13 13 13 13 13 13 13 13 14 15 15 16 17 17 16 15 15 15 17 17 17 16 16 15 14 13 13 14 14 14 14 14 14 14 16 17 17 17 18 18 18 17 18 18 18 18 18 18 19 19 19 19 19 19 19
10 10 9 9 10 11 12 13 13 13 13 13 13 13 13 13 13 13 13 13 13 13 14 17 18 18 18 17 17 16 16 16 16 15 15 15 15 15 15 15 14 14 14 14 14 15 15 15 16 17 18 20 19 18 17 17 18 18 18 18 18 18 18 19 19 20 20 20 19
10 10 10 10 10 10 11 12 13 13 13 13 13 13 13 13 13 13 13 13 12 13 14 17 16 17 17 17 17 17 16 16 16 15 15 15 14 14 14 14 14 14 14 15 15 15 16 16 17 17 18 18 18 18 18 17 17 17 17 17 18 18 19 20 21 20 20 20 20
10 10 10 10 10 10 11 11 12 12 12 12 12 12 12 12 11 11 12 12 13 14 14 15 15 16 16 16 16 16 16 16 16 16 15 15 14 14 15 14 14 15 15 15 16 15 15 16 17 17 18 18 18 18 17 17 17 17 17 17 18 18 18 19 20 20 20 20 20
10 10 10 10 10 10 11 11 11 12 12 11 11 12 13 15 14 12 11 12 13 15 15 15 15 15 16 16 16 16 16 16 16 15 15 16 16 16 15 16 15 16 16 16 17 16 15 16 17 17 17 17 17 17 17 17 17 17 17 18 18 18 18 18 19 19 19 20 20
10 10 10 10 10 11 11 10 11 12 12 11 11 11 12 17 16 14 13 13 14 14 15 15 16 16 16 16 16 17 17 16 16 16 15 15 17 16 16 16 15 16 16 16 16 16 17 17 17 17 17 17 17 17 17 17 17 17 17 17 17 17 17 18 18 19 19 20 20
10 10 10 10 10 11 11 10 11 11 11 11 11 11 11 13 14 15 16 16 15 15 16 16 16 17 17 17 17 17 17 17 16 16 16 16 16 15 15 15 15 15 15 16 16 16 17 17 17 17 16 16 17 17 17 17 17 17 17 17 17 17 17 17 18 19 19 19 19
10 10 10 10 10 10 11 11 10 10 11 11 11 11 11 11 13 16 17 17 17 17 17 17 17 17 17 17 16 16 17 17 16 16 16 16 16 16 15 15 15 15 16 16 16 16 17 17 16 16 16 16 17 17 17 17 17 17 17 17 17 17 17 17 18 19 19 19 20
10 10 10 10 10 10 10 11 11 10 10 11 11 11 11 11 13 16 17 16 16 16 17 17 18 18 17 17 16 16 16 17 17 16 16 17 17 16 16 16 15 16 16 17 16 15 15 16 16 16 16 16 16 17 17 17 17 17 17 16 16 17 17 18 18 19 19 20 20
10 10 10 10 10 10 10 11 11 11 11 11 11 11 12 12 14 16 17 16 16 16 16 16 17 18 18 18 17 17 17 17 17 17 17 17 17 17 16 16 16 15 16 16 16 15 15 15 15 16 16 16 16 16 17 17 17 17 17 17 17 17 17 18 19 19 20 20 20
10 10 10 9 9 10 10 10 11 11 11 11 11 12 12 12 13 16 17 16 16 16 16 16 16 17 17 19 18 17 17 17 17 17 17 17 17 17 16 16 16 16 15 15 16 16 16 15 16 16 16 16 16 16 17 17 17 17 17 17 17 18 18 19 19 20 20 21 21
10 10 10 10 9 10 10 10 10 10 11 11 11 12 12 13 13 15 17 17 17 16 16 16 16 16 17 18 19 19 18 17 17 17 17 17 17 17 17 16 16 16 16 15 15 16 16 16 16 16 16 16 16 16 17 17 17 17 17 17 18 18 19 20 21 21 21 22 22
10 10 10 10 10 11 11 11 11 11 11 11 11 12 12 13 13 15 17 18 17 17 16 16 17 17 17 17 18 19 19 18 18 18 17 17 17 17 17 17 17 17 16 15 15 16 16 16 16 16 16 16 16 17 17 17 17 17 17 17 18 19 19 20 21 21 22 22 22
10 11 11 11 11 12 12 13 12 12 11 11 11 12 13 13 13 14 15 17 18 18 17 17 17 17 17 17 17 18 20 19 18 18 18 17 17 17 17 17 17 17 16 16 16 16 16 16 16 16 16 17 17 17 17 17 17 17 17 18 19 19 20 21 21 21 22 22 23
11 11 12 12 12 13 13 13 13 12 12 11 12 12 13 13 13 14 14 15 17 18 18 17 17 17 17 17 17 17 19 20 18 18 17 17 17 17 17 17 17 16 16 15 16 15 15 16 16 16 16 16 17 17 17 17 17 17 17 18 20 21 21 22 22 22 22 23 24
12 12 13 13 13 13 13 13 13 12 12 12 12 13 13 13 13 14 14 15 16 17 18 18 18 18 17 17 17 17 17 19 18 17 17 17 17 17 17 17 17 17 17 16 16 16 15 15 16 16 16 16 17 17 17 17 17 18 18 20 21 22 22 22 22 23 23 24 24
13 13 13 13 13 13 13 13 12 12 12 12 12 13 13 13 13 14 14 15 16 17 17 17 18 18 18 18 17 17 17 18 18 17 17 17 18 18 18 19 17 17 16 16 16 16 15 15 15 15 16 16 17 17 17 18 19 19 20 22 22 23 23 24 24 24 24 23 22
14 14 14 14 14 14 14 13 12 12 12 12 13 13 13 13 14 14 15 15 17 17 17 17 18 18 18 18 18 17 17 17 17 17 17 17 17 18 18 18 17 16 16 16 16 16 15 15 15 15 16 17 17 18 19 20 22 22 24 25 25 25 24 24 23 22 21 21 21
15 15 15 15 14 14 14 13 12 12 12 13 13 13 13 13 14 14 15 16 17 17 18 18 18 18 18 18 17 17 17 17 17 17 17 17 17 17 17 17 17 16 17 17 18 19 19 19 20 20 21 22 22 24 25 26 28 29 29 28 26 24 22 22 19 18 18 18 19
15 15 15 14 13 13 13 13 13 13 13 13 13 13 13 13 14 15 16 16 17 17 18 18 19 18 18 18 17 17 16 16 16 16 17 17 17 17 17 17 17 17 18 19 24 26 27 27 27 27 28 28 28 28 29 29 30 31 29 26 24 22 21 19 18 17 17 17 17
15 15 14 13 13 13 13 13 13 13 13 13 13 13 14 14 15 15 16 17 17 17 18 18 19 19 19 18 17 17 17 16 16 17 17 17 17 17 17 18 18 18 19 22 26 28 29 30 30 31 31 30 29 29 30 31 31 29 26 22 22 20 19 19 18 17 17 18 17
15 14 13 13 13 12 12 13 13 13 13 13 13 14 14 14 15 16 17 17 17 18 18 19 18 20 21 20 18 17 17 17 17 17 17 17 17 17 17 17 18 18 20 24 27 29 30 30 31 31 31 31 30 30 31 31 29 26 22 20 20 19 18 17 17 18 19 19 19
14 13 13 12 12 11 11 12 12 13 13 13 14 14 15 15 16 16 17 17 18 18 18 19 18 19 20 19 18 17 17 17 17 17 17 17 17 17 17 17 18 19 22 27 28 29 30 30 31 31 31 31 31 31 31 31 27 23 20 20 19 18 18 17 17 17 18 19 19
13 13 12 11 11 11 11 11 11 12 12 13 14 14 15 15 16 17 17 17 18 18 18 18 18 18 17 17 17 17 17 17 17 17 17 17 17 17 17 17 18 20 24 28 29 29 30 30 31 31 31 31 32 32 31 30 26 23 21 21 19 18 17 16 16 17 18 19 20
13 12 12 11 11 11 11 11 11 12 12 13 14 14 15 16 16 17 17 17 18 18 18 18 17 17 16 16 16 17 17 17 17 17 17 16 16 17 17 19 19 21 24 28 29 29 30 30 31 31 31 31 32 32 31 27 24 23 22 22 19 17 16 15 15 15 17 20 21
13 12 11 11 11 11 11 11 11 12 13 13 14 14 15 16 16 17 17 17 18 18 19 18 17 16 16 16 16 17 17 17 17 17 17 16 18 19 19 19 18 21 24 28 29 29 30 30 31 31 31 31 32 31 30 26 24 23 22 21 18 17 15 14 14 15 17 18 20
13 12 11 11 11 11 11 11 12 12 13 13 14 15 15 16 17 17 17 17 18 18 18 18 17 16 16 16 16 17 17 17 17 17 17 17 17 17 18 18 18 20 24 28 29 29 30 30 31 31 31 31 32 31 29 26 25 23 21 18 16 15 15 15 15 15 15 17 18
13 12 11 11 11 11 11 11 12 13 13 14 14 15 15 16 16 17 17 17 17 17 17 17 16 16 16 16 16 17 17 17 17 18 20 20 19 19 19 20 18 21 25 28 28 29 29 30 30 31 31 31 32 31 29 26 24 21 18 15 14 13 13 13 14 14 14 15 16
14 12 11 11 11 11 11 12 12 13 13 14 14 15 15 16 16 17 17 17 17 17 16 16 15 15 15 16 16 17 17 18 18 18 18 19 18 18 18 18 18 21 26 28 28 29 29 30 30 31 31 31 31 30 28 26 23 20 17 14 13 13 12 13 13 13 14 14 15
15 13 12 11 11 11 12 12 13 13 13 14 14 15 15 16 16 17 17 18 17 17 16 15 15 15 15 16 16 17 17 18 18 18 18 18 17 17 18 18 18 21 26 28 28 29 29 29 30 30 31 31 30 29 27 26 23 20 16 14 13 13 12 12 13 13 13 13 14
15 13 12 11 11 11 12 12 13 13 13 14 14 15 15 16 16 16 17 18 18 17 16 15 15 15 15 15 16 17 18 18 18 18 18 18 17 17 17 17 17 21 25 27 28 28 29 29 29 30 30 30 30 29 27 26 23 19 16 14 14 14 13 13 13 13 13 14 14
15 13 12 12 12 12 12 12 13 13 13 14 14 15 15 15 15 16 17 18 17 16 16 15 15 14 15 15 16 17 17 18 18 18 19 20 19 18 17 17 17 19 23 27 28 28 28 29 29 29 29 29 28 27 26 25 22 19 17 14 14 14 14 14 14 13 13 13 16
16 14 13 12 12 12 12 12 13 13 13 14 14 14 15 15 15 15 16 17 17 16 16 15 15 14 15 15 16 17 17 18 18 19 19 19 19 19 18 18 17 18 22 26 27 28 28 28 29 29 29 29 27 26 26 26 23 21 18 16 14 13 14 15 15 15 14 14 21
17 15 14 13 12 12 13 13 13 13 13 14 14 14 14 14 14 15 16 17 17 16 16 15 15 14 15 16 17 17 17 17 19 19 19 19 19 20 20 20 18 19 22 26 27 27 28 28 28 28 29 29 26 26 26 26 24 22 19 15 14 14 14 15 15 15 15 16 24
17 16 15 13 13 13 13 13 13 13 14 14 14 14 14 14 14 15 16 17 17 16 16 15 14 15 16 17 17 17 17 17 18 18 19 20 20 22 24 22 21 20 22 26 27 27 27 27 28 28 28 29 26 26 26 26 25 22 19 15 15 15 16 16 15 15 15 16 21
16 15 15 14 13 13 13 13 13 14 14 14 14 14 14 15 15 15 16 17 17 16 15 15 14 15 16 18 18 18 18 18 18 18 19 20 21 22 24 22 20 19 20 23 26 27 27 27 28 28 28 30 28 27 27 26 25 23 21 19 17 18 18 16 15 15 15 15 16